[[{"header":{"parameterUnit":"m.s-1","parameterCategory":1,"la1":30.2991,"la2":30.254,"lo1":-89.0895,"lo2":-89.0444,"dy":0.0017,"dx":0.0017,"nx":28,"ny":28,"refTime":"2024-08-30T03:00:00:Z","depth":0,"parameterNumber":2,"parameterNumberName":"U-component_of_WINDS"},"data":[0,0,0,0,0,0,0,0,0,0,0,0,0,0,0,0,0,0,0,0,0,0,0,0,0,0,0,0,0,0,0,0,0,0,0,0,0,0,0,0,0,0,0,0,0,0,0,0,0,0,0,0,0,0,0,0,0,0,-5.1294,-5.1295,0,-5.1388,-5.1389,-5.139,-5.1296,-5.1293,-5.1289,-5.1286,-5.1384,-5.139,-5.1396,0,0,0,0,0,0,0,0,0,0,0,0,0,-5.1036,-5.1041,-5.1294,-5.1295,-5.1296,-5.1387,-5.1389,-5.139,-5.1297,-5.1293,-5.1288,-5.1284,-5.1382,-5.1389,-5.1396,0,0,0,0,0,0,0,0,0,0,0,0,0,-5.1141,-5.1043,-5.1294,-5.1261,-5.1259,-5.1387,-5.1389,-5.139,-5.1298,-5.1292,-5.1287,-5.1282,-5.1379,-5.1388,-5.1397,-5.1563,0,0,-5.1425,-5.1429,0,0,0,0,0,0,0,0,-5.1135,-5.115,-5.1264,-5.1263,-5.1261,-5.1325,-5.1334,-5.1448,-5.1299,-5.1283,-5.1285,-5.1279,-5.1369,-5.1378,-5.1408,-5.1568,-5.1572,-5.1426,-5.1431,-5.1435,-5.1438,0,0,0,0,0,0,0,-5.1128,-5.1146,-5.1331,-5.1266,-5.1264,-5.1242,-5.1251,-5.1355,-5.1356,-5.1284,-5.1278,-5.129,-5.1367,-5.1399,-5.141,-5.1574,-5.1425,-5.1433,-5.1439,-5.1443,-5.1873,-5.1879,0,0,0,0,0,0,-5.1124,-5.114,-5.1328,-5.1334,-5.1183,-5.1251,-5.1261,-5.131,-5.1354,-5.1356,-5.1294,-5.1285,-5.1387,-5.1399,-5.1413,-5.1609,-5.1435,-5.1443,-5.1449,-5.1867,-5.1874,-5.1881,0,0,0,0,0,0,-5.1119,-5.1141,-5.1324,-5.1235,-5.1257,-5.1261,-5.1317,-5.1315,-5.1347,-5.1362,-5.1362,-5.1328,-5.1383,-5.14,-5.1526,-5.1611,-5.1447,-5.1456,-5.186,-5.1869,-5.1878,-5.2003,0,0,0,0,0,0,-5.1112,-5.114,-5.1203,-5.1237,-5.1262,-5.1436,-5.1322,-5.132,-5.1363,-5.1351,-5.1393,-5.1395,-5.138,-5.1513,-5.1535,-5.162,-5.1463,-5.1852,-5.1864,-5.1875,-5.1991,-5.2015,-5.2036,0,0,0,0,0,-5.1103,-5.1236,-5.1207,-5.123,-5.1341,-5.1441,-5.1455,-5.1434,-5.137,-5.1433,-5.1443,-5.1393,-5.1598,-5.1527,-5.1551,-5.164,-5.1847,-5.1861,-5.1874,-5.1981,-5.2011,-5.2035,0,0,0,0,0,0,-5.1212,-5.1239,-5.1208,-5.1356,-5.1397,-5.1425,-5.1504,-5.1466,-5.1527,-5.1514,-5.1487,-5.1497,-5.163,-5.1648,-5.1568,-5.1803,-5.1712,-5.1731,-5.1786,-5.1814,-5.1835,-5.1827,-5.147,0,0,0,0,0,-5.1253,-5.1332,-5.1352,-5.148,-5.1502,-5.15,-5.1543,-5.1524,-5.1565,-5.1582,-5.1601,-5.1644,-5.1717,-5.1767,-5.1836,-5.1994,-5.2001,-5.2067,-5.2089,-5.2108,-5.2124,-5.2207,-5.2236,-5.1925,-5.1925,-5.1925,0,0,-5.1339,-5.1364,-5.1415,-5.1503,-5.1532,-5.1614,-5.1515,-5.1607,-5.1667,-5.1597,-5.1716,-5.1732,-5.1777,-5.192,-5.1984,-5.1939,-5.2212,-5.2125,-5.2139,-5.2146,-5.2224,-5.2254,-5.228,-5.1934,-5.1933,-5.1931,0,0,-5.1537,-5.1565,-5.1674,-5.1705,-5.175,-5.1748,-5.1774,-5.1809,-5.1816,-5.1935,-5.1883,-5.1956,-5.2084,-5.2118,-5.2152,-5.2363,-5.232,-5.2387,-5.2502,-5.2584,-5.2608,-5.263,-5.2703,-5.273,-5.2403,-5.2404,-5.2404,0,-5.1639,-5.176,-5.1735,-5.183,-5.1869,-5.1808,-5.1918,-5.195,-5.2017,-5.2045,-5.1994,-5.2153,-5.218,-5.2328,-5.238,-5.241,-5.2439,-5.2381,-5.2607,-5.2628,-5.2648,-5.2718,-5.2746,-5.2411,-5.241,-5.241,-5.2409,0,-5.1881,-5.1966,-5.2049,-5.2113,-5.2162,-5.2264,-5.2255,-5.2308,-5.2285,-5.2288,-5.241,-5.244,-5.2513,-5.2547,-5.2526,-5.2693,-5.2663,-5.2611,-5.2519,-5.2686,-5.2751,-5.2777,-5.2422,-5.2419,-5.2417,-5.2415,0,0,-5.215,-5.2198,-5.2229,-5.2257,-5.2302,-5.2368,-5.2467,-5.2538,-5.2583,-5.2631,-5.2713,-5.2823,-5.2773,-5.2812,-5.2794,-5.2867,-5.303,-5.2804,-5.2805,-5.2843,-5.3214,-5.3253,-5.3284,-5.3002,-5.3007,-5.3011,-5.321,0,-5.2348,-5.2519,-5.2499,-5.2663,-5.274,-5.2683,-5.277,-5.2808,-5.2813,-5.288,-5.2887,-5.2964,-5.2894,-5.2917,-5.2986,-5.2995,-5.3103,-5.2981,-5.3077,-5.3081,-5.3065,-5.3318,-5.3359,-5.3546,-5.3235,-5.324,-5.3243,0,-5.2601,-5.2656,-5.2828,-5.286,-5.2892,-5.297,-5.3032,-5.3097,-5.3139,-5.3138,-5.3181,-5.3151,-5.325,-5.3158,-5.3295,-5.3212,-5.325,-5.3261,-5.3268,-5.3274,-5.3171,-5.333,-5.3605,-5.3632,-5.3283,-5.328,-5.3277,0,-5.2777,-5.2895,-5.3012,-5.3038,-5.308,-5.3135,-5.3156,-5.3191,-5.3235,-5.329,-5.3318,-5.3385,-5.3421,-5.3473,-5.3461,-5.3396,-5.3601,-5.3508,-5.3602,-5.3602,-5.3646,-5.3643,-5.3929,-5.3675,-5.3674,-5.3674,-5.3673,0,-5.2999,-5.3105,-5.3092,-5.3164,-5.3281,-5.3258,-5.3375,-5.3388,-5.3421,-5.3494,-5.345,-5.352,-5.3501,-5.357,-5.3562,-5.3676,-5.3693,-5.3695,-5.3691,-5.3697,-5.3697,-5.3721,-5.3707,-5.3681,-5.368,-5.3678,-5.3677,0,-5.3215,-5.321,-5.3334,-5.3363,-5.3372,-5.3458,-5.3482,-5.355,-5.3552,-5.3646,-5.3667,-5.3671,-5.375,-5.3743,-5.3833,-5.3827,-5.3967,-5.3949,-5.3953,-5.3948,-5.4042,-5.4033,-5.4352,-5.4392,-5.4113,-5.4116,-5.4118,0,-5.3356,-5.3436,-5.3473,-5.3519,-5.3542,-5.3617,-5.366,-5.3641,-5.3689,-5.3742,-5.3803,-5.3878,-5.3937,-5.4066,-5.4077,-5.4145,-5.4127,-5.4235,-5.4137,-5.4141,-5.4127,-5.4121,-5.4128,-5.4253,-5.4256,-5.4259,-5.4261,0,-5.3605,-5.3599,-5.3663,-5.3727,-5.378,-5.3829,-5.3874,-5.3914,-5.39,-5.3956,-5.4035,-5.4081,-5.4172,-5.4247,-5.4312,-5.4332,-5.4295,-5.4292,-5.4317,-5.4323,-5.4321,-5.4322,-5.4003,-5.4284,-5.4282,-5.428,-5.4279,-5.4278,-5.3786,-5.3854,-5.3891,-5.3964,-5.3996,-5.4039,-5.4103,-5.4113,-5.4179,-5.4251,-5.4236,-5.4326,-5.4365,-5.4448,-5.4475,-5.4545,-5.4506,-5.4543,-5.4552,-5.4561,-5.4571,-5.4312,-5.4557,-5.4556,-5.4556,-5.4555,-5.4555,0,-5.4032,-5.4052,-5.412,-5.4183,-5.4241,-5.42,-5.4248,-5.4298,-5.4377,-5.4417,-5.4475,-5.4567,-5.4639,-5.4656,-5.4725,-5.4778,-5.4762,-5.4797,-5.4792,-5.4797,-5.4603,-5.4573,-5.4808,-5.4808,-5.4808,-5.4808,-5.4808,-5.4808,-5.4166,-5.4278,-5.4277,-5.4404,-5.4424,-5.4511,-5.4542,-5.4581,-5.4612,-5.4716,-5.4775,-5.4786,-5.4816,-5.4887,-5.4951,-5.4954,-5.4981,-5.5022,-5.5019,-5.4836,-5.4811,-5.4787,-5.4758,-5.5029,-5.5029,-5.5207,-5.5208,-5.521]},{"header":{"parameterUnit":"m.s-1","parameterCategory":1,"la1":30.2991,"la2":30.254,"lo1":-89.0895,"lo2":-89.0444,"dy":0.0017,"dx":0.0017,"nx":28,"ny":28,"refTime":"2024-08-30T03:00:00:Z","depth":0,"parameterNumber":3,"parameterNumberName":"V-component_of_WINDS"},"data":[0,0,0,0,0,0,0,0,0,0,0,0,0,0,0,0,0,0,0,0,0,0,0,0,0,0,0,0,0,0,0,0,0,0,0,0,0,0,0,0,0,0,0,0,0,0,0,0,0,0,0,0,0,0,0,0,0,0,2.2045,2.2047,0,2.2146,2.2147,2.2148,2.2209,2.2209,2.2209,2.221,2.2303,2.2305,2.2307,0,0,0,0,0,0,0,0,0,0,0,0,0,2.1896,2.1899,2.2045,2.2047,2.2048,2.2146,2.2147,2.2149,2.2209,2.2209,2.221,2.221,2.2302,2.2305,2.2308,0,0,0,0,0,0,0,0,0,0,0,0,0,2.1975,2.1899,2.2045,2.209,2.2095,2.2146,2.2147,2.2149,2.2209,2.2209,2.221,2.221,2.2301,2.2305,2.2308,2.2319,0,0,2.2318,2.2319,0,0,0,0,0,0,0,0,2.197,2.198,2.2082,2.2087,2.2093,2.2166,2.2129,2.2206,2.2209,2.2165,2.221,2.221,2.2256,2.2263,2.2281,2.2323,2.2327,2.2318,2.232,2.2322,2.2323,0,0,0,0,0,0,0,2.1965,2.1976,2.2085,2.2083,2.209,2.2102,2.2114,2.2144,2.2206,2.2169,2.2174,2.2185,2.2259,2.2278,2.2283,2.2329,2.2318,2.2321,2.2323,2.2324,2.2386,2.2385,0,0,0,0,0,0,2.1954,2.1971,2.2082,2.2088,2.2032,2.2104,2.2118,2.2142,2.2206,2.2217,2.2185,2.2188,2.2272,2.228,2.2287,2.2305,2.2322,2.2325,2.2327,2.2386,2.2386,2.2385,0,0,0,0,0,0,2.195,2.1963,2.2078,2.2031,2.2047,2.2107,2.2133,2.2143,2.2162,2.2219,2.2229,2.2193,2.2272,2.2282,2.2311,2.2309,2.2326,2.2329,2.2386,2.2386,2.2385,2.2341,0,0,0,0,0,0,2.1946,2.1961,2.1968,2.2031,2.2049,2.2103,2.2133,2.2145,2.2169,2.2173,2.2229,2.2238,2.2274,2.2306,2.2315,2.2314,2.2332,2.2387,2.2386,2.2386,2.2343,2.2339,2.2336,0,0,0,0,0,2.194,2.1949,2.1968,2.1981,2.2059,2.2103,2.2113,2.2156,2.2168,2.2174,2.2211,2.2236,2.2308,2.2309,2.2319,2.2319,2.2387,2.2386,2.2386,2.2345,2.234,2.2336,0,0,0,0,0,0,2.1881,2.1958,2.198,2.201,2.205,2.2113,2.2122,2.2149,2.2184,2.2186,2.2235,2.2247,2.2272,2.2298,2.2297,2.2333,2.235,2.2352,2.2316,2.2312,2.2308,2.2301,2.2335,0,0,0,0,0,2.1872,2.1904,2.1968,2.1988,2.2008,2.2061,2.2082,2.2112,2.2154,2.217,2.2208,2.2245,2.2276,2.2295,2.2326,2.2347,2.2359,2.2352,2.2348,2.2345,2.2345,2.2359,2.2356,2.2383,2.2383,2.2383,0,0,2.1852,2.1899,2.1915,2.1978,2.2012,2.2042,2.2075,2.2104,2.2126,2.2173,2.2205,2.2234,2.2278,2.2303,2.2316,2.2325,2.2341,2.2344,2.2341,2.2343,2.2358,2.2355,2.2353,2.2382,2.2382,2.2382,0,0,2.1832,2.1871,2.1893,2.1928,2.1981,2.2016,2.2021,2.2081,2.2103,2.2136,2.2173,2.2197,2.2249,2.228,2.2302,2.2295,2.232,2.2303,2.2284,2.2297,2.2295,2.2293,2.2291,2.229,2.2304,2.2303,2.2303,0,2.1801,2.185,2.19,2.1929,2.1955,2.2002,2.2024,2.2054,2.2112,2.2128,2.2139,2.2207,2.2239,2.2273,2.2271,2.2287,2.2294,2.2298,2.2292,2.2291,2.229,2.2288,2.2287,2.2301,2.2301,2.2302,2.2302,0,2.1809,2.1842,2.1853,2.1914,2.1941,2.1965,2.2016,2.2037,2.2065,2.2098,2.2131,2.2172,2.2213,2.2223,2.2249,2.226,2.2265,2.2283,2.2301,2.2284,2.2284,2.2283,2.2298,2.2299,2.2299,2.23,0,0,2.1754,2.1844,2.1847,2.1875,2.1937,2.1963,2.1988,2.2033,2.205,2.2088,2.211,2.2154,2.2172,2.2197,2.2226,2.2237,2.223,2.2254,2.2256,2.2249,2.2245,2.2232,2.223,2.2246,2.2247,2.2247,2.2241,0,2.1744,2.1798,2.1844,2.1879,2.191,2.1956,2.1978,2.2017,2.205,2.2078,2.2112,2.2143,2.2164,2.218,2.2192,2.2228,2.223,2.2229,2.2266,2.2267,2.2255,2.223,2.2216,2.2209,2.2241,2.2241,2.2241,0,2.174,2.1782,2.1821,2.1882,2.1897,2.1917,2.1961,2.1989,2.2033,2.2056,2.2085,2.2116,2.2143,2.2158,2.2196,2.2194,2.2212,2.2231,2.2232,2.2237,2.2253,2.2235,2.2208,2.2207,2.2241,2.2241,2.2241,0,2.1697,2.1762,2.1795,2.1818,2.1889,2.1902,2.1931,2.1977,2.2001,2.2038,2.2054,2.2092,2.2113,2.2141,2.2182,2.2189,2.2215,2.2233,2.2233,2.2232,2.2237,2.2236,2.2212,2.2246,2.2246,2.2246,2.2246,0,2.1682,2.1705,2.1778,2.1798,2.1824,2.1875,2.1898,2.1931,2.1971,2.1996,2.2036,2.2058,2.211,2.2138,2.2169,2.2195,2.2204,2.2221,2.223,2.2219,2.2216,2.2231,2.2233,2.2246,2.2246,2.2246,2.2246,0,2.1639,2.1689,2.1728,2.1794,2.181,2.1827,2.1881,2.1901,2.1936,2.1967,2.1977,2.2031,2.2066,2.2109,2.2156,2.2177,2.22,2.2212,2.2186,2.2191,2.2189,2.2189,2.2175,2.2176,2.2208,2.2208,2.2207,0,2.1627,2.1646,2.1715,2.1737,2.1767,2.18,2.1826,2.1876,2.1901,2.1954,2.1966,2.2005,2.2039,2.2091,2.2133,2.2169,2.2182,2.2175,2.2188,2.2176,2.2183,2.2182,2.2184,2.2171,2.2171,2.217,2.217,0,2.16,2.1624,2.1662,2.1708,2.1739,2.1777,2.1816,2.183,2.1887,2.1912,2.1951,2.1977,2.2027,2.2065,2.2107,2.2133,2.2161,2.2166,2.2168,2.2157,2.2142,2.2151,2.2178,2.2166,2.2166,2.2167,2.2167,2.2167,2.1573,2.1592,2.1645,2.1685,2.1721,2.1757,2.178,2.1819,2.1853,2.19,2.1926,2.1964,2.2007,2.2067,2.2093,2.2121,2.2131,2.2133,2.2134,2.2134,2.2131,2.2137,2.2128,2.2128,2.2129,2.2129,2.2129,0,2.1549,2.1585,2.1622,2.1678,2.1709,2.1736,2.1781,2.1804,2.1838,2.1878,2.1911,2.1955,2.1991,2.2036,2.2075,2.2089,2.2102,2.2097,2.2097,2.2103,2.212,2.2115,2.2086,2.2086,2.2086,2.2086,2.2086,2.2086,2.154,2.1576,2.1606,2.1658,2.1694,2.1734,2.1757,2.179,2.1823,2.1871,2.1903,2.1933,2.1975,2.2017,2.2051,2.2063,2.2075,2.2067,2.2082,2.2098,2.2101,2.2105,2.2101,2.2069,2.2069,2.2063,2.2063,2.2063]}]]